W5GFI Weather Reports


time (UTC)temp
C
wind
direction
speed
KPH
gust
KPH
rain 1hr
cm
rain 24hr
cm
rain mn
cm
humidity
%
barometer
mb
20260506034554 8 33 3.2 9.7 0.00 3.76 3.30 84 1013.6
20260506033029 8 27 3.2 11.3 0.00 3.76 3.30 84 1013.4
20260506031512 8 75 4.8 16.1 0.00 3.76 3.30 84 1012.9
20260506030049 8 83 3.2 14.5 0.00 3.76 3.30 85 1012.5
20260506024539 8 31 4.8 19.3 0.00 3.76 3.30 85 1012.2
20260506023003 8 74 1.6 14.5 0.00 3.76 3.30 86 1012.0
20260506021541 8 19 1.6 8.0 0.00 3.76 3.30 87 1011.8
20260506020024 8 41 3.2 14.5 0.00 3.76 3.30 86 1011.7
20260506014512 8 42 4.8 16.1 0.00 3.76 3.30 87 1011.2
20260506013044 8 25 3.2 17.7 0.00 3.76 3.30 87 1011.0
20260506011556 9 317 1.6 9.7 0.00 3.76 3.30 87 1011.0
20260506010009 9 38 1.6 9.7 0.03 3.76 3.30 86 1010.5
20260506004600 9 49 4.8 19.3 0.03 3.76 3.30 85 1010.5
20260506003029 9 124 1.6 19.3 0.03 3.76 3.30 85 1010.8
20260506001504 9 45 4.8 19.3 0.03 3.76 3.30 85 1010.4
20260505234536 9 58 3.2 16.1 0.03 3.73 3.28 83 1010.1
20260505233101 9 32 3.2 22.5 0.05 3.73 3.28 82 1010.4
20260505231532 9 13 3.2 16.1 0.05 3.73 3.28 83 1009.9
20260505230020 9 168 4.8 16.1 0.05 3.73 3.28 82 1009.4
20260505224547 10 174 3.2 24.1 0.03 3.71 3.25 79 1009.3
20260505223024 10 192 6.4 20.9 0.00 3.68 3.23 74 1009.4
20260505221504 11 324 8.0 25.7 0.00 3.68 3.23 73 1009.1
20260505220043 11 10 4.8 20.9 0.00 3.68 3.23 72 1008.9
20260505214528 11 67 8.0 30.6 0.00 3.68 3.23 71 1008.8
20260505213009 11 64 6.4 19.3 0.00 3.68 3.23 71 1008.9
20260505211546 11 4 4.8 22.5 0.00 3.68 3.23 71 1008.7
20260505210030 11 270 8.0 20.9 0.00 3.68 3.23 70 1008.5
20260505204510 12 58 8.0 19.3 0.00 3.68 3.23 73 1008.3
20260505203056 12 43 9.7 29.0 0.00 3.68 3.23 73 1008.5
20260505201530 12 359 11.3 19.3 0.00 3.68 3.23 73 1008.4
20260505194548 11 15 4.8 17.7 0.00 3.68 3.23 78 1008.2
20260505193024 11 359 6.4 27.4 0.00 3.68 3.23 78 1008.2
20260505191607 11 35 6.4 29.0 0.00 3.68 3.23 81 1008.1
20260505190036 11 80 6.4 17.7 0.03 3.68 3.23 82 1008.1
20260505184518 12 359 6.4 20.9 0.03 3.68 3.23 82 1007.6
20260505183053 12 27 8.0 32.2 0.03 3.68 3.23 82 1007.6
20260505181523 12 8 8.0 22.5 0.03 3.68 3.23 83 1007.5
20260505180005 12 118 6.4 22.5 0.00 3.66 3.20 81 1007.9
20260505174542 12 46 3.2 17.7 0.00 3.66 3.20 82 1007.4
20260505173014 12 41 6.4 24.1 0.00 3.66 3.20 82 1007.0
20260505171608 12 14 4.8 27.4 0.00 3.66 3.20 82 1006.8
20260505170032 12 51 4.8 24.1 0.00 3.66 3.20 84 1006.9
20260505164505 12 20 8.0 25.7 0.00 3.66 3.20 84 1006.4
20260505163041 12 354 4.8 25.7 0.00 3.66 3.20 86 1006.4
20260505161526 12 359 6.4 22.5 0.00 3.66 3.20 87 1006.3
20260505160104 12 359 4.8 29.0 0.00 3.66 3.20 88 1006.5
20260505153051 13 324 4.8 14.5 0.00 3.66 3.20 87 1005.9
20260505151534 13 10 6.4 17.7 0.00 3.66 3.20 86 1006.0
20260505130106 16 17 4.8 16.1 0.00 3.66 3.20 89 1004.8
20260505124542 16 127 1.6 11.3 0.00 3.66 3.20 89 1004.7
20260505123008 16 35 3.2 12.9 0.00 3.66 3.20 89 1004.4
20260505121623 16 39 3.2 8.0 0.00 3.66 3.20 90 1004.4
20260505120029 16 91 1.6 9.7 0.00 3.66 3.20 90 1003.9
20260505114503 16 65 1.6 16.1 0.00 3.66 3.20 90 1003.8
20260505113046 16 74 1.6 8.0 0.00 3.66 3.20 91 1003.6
20260505111515 16 89 3.2 6.4 0.00 3.66 3.20 90 1003.6
20260505101543 16 134 3.2 16.1 0.00 3.66 3.20 92 1002.5
20260505100035 16 359 3.2 12.9 0.00 3.66 3.20 92 1002.9
20260505094601 16 97 1.6 16.1 0.00 3.66 3.20 93 1003.1
20260505093036 15 110 1.6 14.5 0.00 3.66 3.20 93 1003.5
20260505091527 15 93 1.6 16.1 0.00 3.66 3.20 94 1003.6
20260505084532 15 83 4.8 11.3 0.00 3.66 3.20 94 1003.8
20260505083022 15 144 4.8 14.5 0.00 3.66 3.20 93 1003.7
20260505081552 15 93 6.4 17.7 0.00 3.66 3.20 94 1003.3
20260505080027 15 194 4.8 22.5 0.00 3.66 3.20 95 1003.5
20260505074556 15 106 3.2 12.9 0.08 3.66 3.20 94 1004.0
20260505073052 14 55 1.6 6.4 0.58 3.66 3.20 94 1004.3
20260505071517 14 18 1.6 12.9 1.09 3.66 3.20 94 1004.5
20260505070108 14 105 1.6 8.0 1.83 3.66 3.20 93 1005.4
20260505064533 14 64 3.2 11.3 3.07 3.56 3.10 92 1006.2
20260505063007 15 11 3.2 17.7 2.51 3.00 2.54 92 1006.2
20260505061546 15 10 4.8 20.9 2.13 2.59 2.13 89 1006.4
20260505060024 17 354 14.5 35.4 1.40 1.73 1.27 90 1005.9
20260505054619 17 359 17.7 32.2 0.38 0.48 0.03 87 1002.7
20260505053030 17 97 3.2 11.3 0.41 0.48 0.03 86 1002.7
20260505051533 17 116 6.4 17.7 0.46 0.46 0.46 85 1003.1
20260505041611 21 137 3.2 9.7 0.00 0.00 0.00 63 1004.2
20260505040041 21 169 1.6 9.7 0.00 0.00 0.00 63 1003.5